Carlsbad, CA

4:29 AM PDT on August 18, 2017 (GMT -0700)
McClellan-Palomar

Weather History for KCRQ - July, 2013

Change the Weather History Date:

Thursday, July 18, 2013

  Actual Average Record
Temperature  
Mean Temperature 69 °F -  
Max Temperature 73 °F 72 °F 82 °F (2015)
Min Temperature 66 °F 61 °F 60 °F (2001)
Cooling Degree Days 4    
Growing Degree Days 19 (Base 50)    
Moisture  
Dew Point 61 °F    
Average Humidity 75    
Maximum Humidity 83    
Minimum Humidity 66    
Precipitation  
Precipitation 0.00 in - - ()
Sea Level Pressure  
Sea Level Pressure 29.94 in    
Wind  
Wind Speed 2 mph (WSW)    
Max Wind Speed 10 mph    
Max Gust Speed -    
Visibility 10 miles    
Events      
Averages and records for this station are not official NWS values.
T = Trace of Precipitation, MM = Missing Value Source: NWS Daily Summary

Daily Weather History Graph

Daily Weather History Graph

Search for Another Location

Airport or City:

Trip Planner

Search our weather history database for the weather conditions in past years. The results will help you decide how hot, cold, wet, or windy it might be!

Date:

Astronomy

Jul. 18, 2013 Rise Set
Actual Time 5:53 AM PDT 7:57 PM PDT
Civil Twilight 5:25 AM PDT 8:25 PM PDT
Nautical Twilight 4:51 AM PDT 8:59 PM PDT
Astronomical Twilight 4:14 AM PDT 9:35 PM PDT
Moon 4:00 PM PDT 1:44 AM PDT
Length of Visible Light 14h 59m
Length of Day
14h 04m
Waxing Gibbous, 78% of the Moon is Illuminated
Jul 18
Waxing Gibbous
Jul 22
Full
Jul 29
Last Quarter
Aug 6
New
Aug 14
First Quarter

Hourly Weather History & Observations

Time (PDT) Temp. Dew Point Humidity Pressure Visibility Wind Dir Wind Speed Gust Speed Precip Events Conditions
12:13 AM 69.8 °F 60.8 °F 73% 29.98 in 10.0 mi Calm Calm - N/A   Mostly Cloudy
12:53 AM 68.0 °F 62.1 °F 81% 29.97 in 10.0 mi Calm Calm - N/A   Overcast
1:01 AM 68.0 °F 62.6 °F 83% 29.98 in 10.0 mi Calm Calm - N/A   Overcast
1:53 AM 68.0 °F 62.1 °F 81% 29.96 in 10.0 mi Calm Calm - N/A   Overcast
2:53 AM 66.9 °F 61.0 °F 81% 29.95 in 10.0 mi Calm Calm - N/A   Overcast
3:53 AM 66.9 °F 61.0 °F 81% 29.94 in 10.0 mi Calm Calm - N/A   Overcast
4:53 AM 66.9 °F 60.1 °F 79% 29.95 in 10.0 mi Calm Calm - N/A   Overcast
5:53 AM 66.9 °F 60.1 °F 79% 29.96 in 10.0 mi Calm Calm - N/A   Overcast
6:53 AM 66.9 °F 60.1 °F 79% 29.97 in 10.0 mi Calm Calm - N/A   Overcast
7:53 AM 66.9 °F 60.1 °F 79% 29.98 in 10.0 mi Calm Calm - N/A   Overcast
8:06 AM 68.0 °F 60.8 °F 78% 29.99 in 10.0 mi Calm Calm - N/A   Overcast
8:53 AM 68.0 °F 60.1 °F 76% 29.99 in 10.0 mi SW 4.6 mph - N/A   Overcast
9:32 AM 69.8 °F 60.8 °F 73% 29.98 in 10.0 mi Variable 3.5 mph - N/A   Scattered Clouds
9:53 AM 71.1 °F 60.1 °F 68% 29.97 in 10.0 mi Variable 5.8 mph - N/A   Clear
10:53 AM 71.1 °F 60.1 °F 68% 29.97 in 10.0 mi WSW 8.1 mph - N/A   Clear
11:53 AM 72.0 °F 60.1 °F 66% 29.96 in 10.0 mi WSW 8.1 mph - N/A   Clear
12:53 PM 72.0 °F 60.1 °F 66% 29.94 in 10.0 mi WSW 10.4 mph - N/A   Clear
1:53 PM 71.1 °F 59.0 °F 66% 29.94 in 10.0 mi WSW 10.4 mph - N/A   Clear
2:53 PM 71.1 °F 59.0 °F 66% 29.91 in 10.0 mi WSW 10.4 mph - N/A   Clear
3:53 PM 70.0 °F 59.0 °F 68% 29.90 in 10.0 mi WSW 9.2 mph - N/A   Clear
4:53 PM 71.1 °F 59.0 °F 66% 29.89 in 10.0 mi West 6.9 mph - N/A   Clear
5:53 PM 70.0 °F 59.0 °F 68% 29.87 in 10.0 mi WSW 6.9 mph - N/A   Clear
6:53 PM 70.0 °F 59.0 °F 68% 29.88 in 10.0 mi SSW 3.5 mph - N/A   Clear
7:53 PM 69.1 °F 61.0 °F 75% 29.88 in 10.0 mi West 3.5 mph - N/A   Clear
8:53 PM 68.0 °F 62.1 °F 81% 29.90 in 10.0 mi West 3.5 mph - N/A   Clear
9:07 PM 68.0 °F 62.6 °F 83% 29.91 in 10.0 mi Calm Calm - N/A   Scattered Clouds
9:23 PM 68.0 °F 62.6 °F 83% 29.91 in 10.0 mi West 3.5 mph - N/A   Mostly Cloudy
9:53 PM 68.0 °F 61.0 °F 78% 29.91 in 10.0 mi Variable 3.5 mph - N/A   Mostly Cloudy
10:53 PM 68.0 °F 61.0 °F 78% 29.91 in 10.0 mi WNW 3.5 mph - N/A   Mostly Cloudy
11:53 PM 68.0 °F 62.1 °F 81% 29.89 in 10.0 mi Calm Calm - N/A   Overcast